Regional Weather Roundup
Issued by NWS

Home | Current Version | Previous Version | Text Only | Print | Product List | Glossary Off
Versions: 1 2 3 4 5 6 7 8 9 10 11 12 13 14 15 16 17 18 19 20 21 22 23 24 25 26 27 28 29 30 31 32 33 34 35 36 37 38 39 40 41 42 43 44 45 46 47 48 49 50

000
ASUS43 KTOP 231008
RWRKS

WEATHER ROUNDUP FOR KANSAS
NATIONAL WEATHER SERVICE GOODLAND KS
500 AM CDT SAT JUL 23 2016

NOTE:  "FAIR" INDICATES FEW OR NO CLOUDS BELOW 12,000 FEET WITH NO
SIGNIFICANT WEATHER AND/OR OBSTRUCTIONS TO VISIBILITY.

KSZ001>006-013>018-027>032-041>047-231100-
NORTHWEST KANSAS

CITY           SKY/WX    TMP DP  RH WIND       PRES   REMARKS
GOODLAND       CLOUDY    68  66  93 E8        29.96F
HAYS           CLOUDY    82  57  42 W5        29.97S
HILL CITY      CLOUDY    74  67  78 SE5       29.97F
RUSSELL        CLOUDY    82  62  50 NW8       29.95R
$$

KSZ061>065-074>080-084>089-231100-
SOUTHWEST KANSAS

CITY           SKY/WX    TMP DP  RH WIND       PRES   REMARKS
DODGE CITY     CLOUDY    73  62  68 S10       29.96F
ELKHART          N/A     80  53  39 S13         N/A
GARDEN CITY    MOCLDY    70  61  73 S8        29.95F
GREAT BEND     CLOUDY    82  61  47 S14       29.93S
LIBERAL        CLOUDY    72  55  56 S9        30.00S
PRATT          PTCLDY    75  61  61 S9        29.95F
$$

KSZ066>073-081>083-090>101-231100-
SOUTHEAST KANSAS

CITY           SKY/WX    TMP DP  RH WIND       PRES   REMARKS
CHANUTE        CLEAR     76  73  91 SE7       29.96S
COFFEYVILLE    CLEAR     75  71  87 CALM      29.95F
HUTCHINSON     CLEAR     76  65  68 S5        29.93F
MEDICINE LODGE   N/A     76  64  66 SE7       29.94F
NEWTON         CLEAR     79  67  66 S10       29.95F
PARSONS        CLEAR     78  70  76 CALM      29.97S
WICHITA INTL   PTCLDY    76  67  73 S8        29.94F
WICHITA JABRA  CLEAR     76  69  79 S5        29.94F
WICHITA MCCONL CLEAR     77  68  73 SW9       29.95F
WINFIELD       CLEAR     74  68  81 S6        29.97S
$$

KSZ007>012-019>026-033>040-048>060-102>105-231100-
NORTHEAST KANSAS

CITY           SKY/WX    TMP DP  RH WIND       PRES   REMARKS
CONCORDIA      TSTM      73  68  84 SW10      29.96R
EMPORIA        CLEAR     76  70  82 S10       29.94S
LAWRENCE       PTCLDY    76  72  87 E7        29.94S
MANHATTAN      PTCLDY    83  68  60 SW12      29.89F
MARYSVILLE     CLOUDY    81  70  69 S7        29.90S
OLATHE IND     CLEAR     77  72  84 S7        29.96S
OLATHE EXE     CLEAR     77  72  84 S3        29.96F
SALINA         MOCLDY    83  65  54 S10       29.91S
TOPEKA BILLARD CLOUDY    82  70  66 SE3       29.92F
TOPEKA FORBES  CLOUDY    82  71  69 S6        29.93F
$$



USA.gov is the U.S. government's official web portal to all federal, state and local government web resources and services.